Weather History for Lima, OH

Change the Weather History Date:

Thursday, August 29, 2013

  Actual Average (KFDY) Record (KFDY)
Temperature  
Mean Temperature 76 °F -  
Max Temperature 87 °F 80 °F 97 °F (1953)
Min Temperature 64 °F 59 °F 38 °F (1965)
Cooling Degree Days 10    
Growing Degree Days 26 (Base 50)    
Moisture  
Dew Point 67 °F    
Average Humidity 82    
Maximum Humidity 94    
Minimum Humidity 48    
Precipitation  
Precipitation 0.00 in - - ()
Sea Level Pressure  
Sea Level Pressure 30.03 in    
Wind  
Wind Speed 2 mph (NE)    
Max Wind Speed 7 mph    
Max Gust Speed -    
Visibility 4 miles    
Events Fog    
Averages and records for this station are not official NWS values.
T = Trace of Precipitation, MM = Missing Value Source: NWS Daily Summary

Daily Weather History Graph

Daily Weather History Graph

Search for Another Location

Airport:

Trip Planner

Search our weather history database for the weather conditions in past years. The results will help you decide how hot, cold, wet, or windy it might be!

Date:

Astronomy

Aug. 29, 2013 Rise Set
Actual Time 7:00 AM EDT 8:12 PM EDT
Civil Twilight 6:32 AM EDT 8:40 PM EDT
Nautical Twilight 5:58 AM EDT 9:14 PM EDT
Astronomical Twilight 5:22 AM EDT 9:49 PM EDT
Moon 12:50 AM EDT (8/29) 3:41 PM EDT (8/29)
Length of Visible Light 14h 08m
Length of Day
13h 12m
Last Quarter, 38% of the Moon is Illuminated
Aug 29
Last Quarter
Sep 5
New
Sep 12
First Quarter
Sep 19
Full
Sep 26
Last Quarter

Hourly Weather History & Observations

Time (EDT) Temp. Heat Index Dew Point Humidity Pressure Visibility Wind Dir Wind Speed Gust Speed Precip Events Conditions
12:33 AM 71.6 °F - 68.0 °F 88% 30.01 in 2.5 mi Calm Calm - N/A   Partly Cloudy
12:53 AM 69.1 °F - 66.0 °F 90% 29.99 in 2.0 mi Calm Calm - N/A   Partly Cloudy
1:03 AM 68.0 °F - 64.4 °F 88% 30.02 in 0.8 mi Calm Calm - N/A   Partly Cloudy
1:11 AM 68.0 °F - 64.4 °F 88% 30.02 in 0.2 mi Calm Calm - N/A Fog Fog
1:14 AM 68.0 °F - 64.4 °F 88% 30.02 in 0.2 mi Calm Calm - N/A Fog Fog
1:53 AM 68.0 °F - 64.9 °F 90% 30.00 in 0.2 mi Calm Calm - N/A Fog Fog
2:14 AM 66.2 °F - 64.4 °F 94% 30.01 in 0.2 mi Calm Calm - N/A Fog Fog
2:27 AM 64.4 °F - 62.6 °F 94% 30.01 in 0.2 mi Calm Calm - N/A Fog Fog
2:50 AM 66.2 °F - 64.4 °F 94% 30.01 in 0.2 mi North 3.5 mph - N/A Fog Fog
2:53 AM 66.9 °F - 64.9 °F 93% 29.99 in 0.2 mi North 3.5 mph - N/A Fog Fog
3:15 AM 69.8 °F - 66.2 °F 88% 30.02 in 0.2 mi NNE 3.5 mph - N/A Fog Fog
3:53 AM 70.0 °F - 66.9 °F 90% 30.00 in 0.5 mi Calm Calm - N/A Fog Fog
4:02 AM 69.8 °F - 66.2 °F 88% 30.02 in 0.5 mi Calm Calm - N/A Fog Fog
4:17 AM 71.6 °F - 68.0 °F 88% 30.02 in 0.8 mi Calm Calm - N/A   Overcast
4:29 AM 69.8 °F - 68.0 °F 94% 30.02 in 0.5 mi Calm Calm - N/A Fog Fog
4:43 AM 69.8 °F - 66.2 °F 88% 30.02 in 0.5 mi Calm Calm - N/A Fog Fog
4:53 AM 70.0 °F - 66.9 °F 90% 29.99 in 0.2 mi Calm Calm - N/A Fog Fog
5:06 AM 69.8 °F - 66.2 °F 88% 30.02 in 0.2 mi Calm Calm - N/A Fog Fog
5:53 AM 66.9 °F - 64.0 °F 90% 30.00 in 0.2 mi North 3.5 mph - N/A Fog Fog
6:53 AM 68.0 °F - 64.9 °F 90% 30.01 in 0.2 mi Calm Calm - N/A Fog Fog
7:53 AM 69.1 °F - 66.0 °F 90% 30.04 in 0.2 mi Calm Calm - N/A Fog Fog
8:53 AM 70.0 °F - 68.0 °F 93% 30.06 in 0.5 mi NNE 3.5 mph - N/A Fog Fog
9:00 AM 69.8 °F - 68.0 °F 94% 30.07 in 1.0 mi Calm Calm - N/A   Overcast
9:53 AM 71.1 °F - 68.0 °F 90% 30.07 in 1.5 mi NE 5.8 mph - N/A   Overcast
10:13 AM 71.6 °F - 69.8 °F 94% 30.09 in 1.8 mi NE 4.6 mph - N/A   Overcast
10:20 AM 71.6 °F - 68.0 °F 88% 30.09 in 2.0 mi NE 5.8 mph - N/A   Overcast
10:42 AM 73.4 °F - 68.0 °F 83% 30.09 in 3.0 mi East 5.8 mph - N/A   Haze
10:53 AM 73.9 °F - 68.0 °F 82% 30.07 in 4.0 mi NE 6.9 mph - N/A   Haze
11:20 AM 75.2 °F - 69.8 °F 83% 30.09 in 4.0 mi ENE 4.6 mph - N/A   Haze
11:53 AM 77.0 °F - 69.1 °F 76% 30.08 in 5.0 mi NE 5.8 mph - N/A   Haze
12:20 PM 78.8 °F - 68.0 °F 69% 30.09 in 7.0 mi ENE 6.9 mph - N/A   Mostly Cloudy
12:29 PM 78.8 °F - 68.0 °F 69% 30.09 in 7.0 mi Calm Calm - N/A   Scattered Clouds
12:53 PM 79.0 °F - 68.0 °F 69% 30.06 in 9.0 mi East 4.6 mph - N/A   Partly Cloudy
1:53 PM 84.0 °F 87.0 °F 68.0 °F 58% 30.06 in 10.0 mi NE 3.5 mph - N/A   Partly Cloudy
2:53 PM 84.9 °F 87.1 °F 66.0 °F 53% 30.04 in 10.0 mi South 3.5 mph - N/A   Scattered Clouds
3:53 PM 86.0 °F 88.2 °F 66.0 °F 51% 30.03 in 10.0 mi Variable 4.6 mph - N/A   Clear
4:53 PM 87.1 °F 88.9 °F 64.9 °F 48% 30.02 in 10.0 mi East 4.6 mph - N/A   Partly Cloudy
5:53 PM 87.1 °F 88.9 °F 64.9 °F 48% 30.01 in 10.0 mi ESE 4.6 mph - N/A   Partly Cloudy
6:53 PM 84.0 °F 86.5 °F 66.9 °F 56% 30.01 in 10.0 mi ENE 3.5 mph - N/A   Clear
7:53 PM 77.0 °F - 69.1 °F 76% 30.01 in 10.0 mi Calm Calm - N/A   Clear
8:53 PM 73.0 °F - 66.9 °F 81% 30.02 in 10.0 mi Calm Calm - N/A   Clear
9:53 PM 72.0 °F - 66.0 °F 81% 30.04 in 9.0 mi NE 3.5 mph - N/A   Clear
10:53 PM 70.0 °F - 66.0 °F 87% 30.03 in 7.0 mi East 4.6 mph - N/A   Clear
11:53 PM 70.0 °F - 66.0 °F 87% 30.01 in 6.0 mi East 4.6 mph - N/A   Clear